Location: *
(44.3925°N, 5.4708°E)
Time: 09:02:44
(UTC+00:00)

Meteor 1-22 Rocket - Pass Details

Date: 18 September 2019
Orbit: 786 x 942 km, 81.2° (Epoch: 17 October)

Event Time Altitude Azimuth Distance (km) Brightness Sun altitude
Exits shadow 20:10:14 55° 166° (SSE) 1,123 4.5 -25.7°
Maximum altitude 20:11:38 76° 97° (E) 971 4.3 -25.9°
Drops below altitude 10° 20:17:45 10° 14° (NNE) 2,667 7.0 -26.8°
Sets 20:20:16 0° 13° (NNE) 3,610 7.7 -27.2°
